Погода в Бальзое

Россия / Забайкальский край     51°21′27″N   112°21′52″E
темп.,
°C
ветер,
м/с
пор.,
м/с
влажн.,
%
обл.,
%
осадки,
мм/ч
давл.,
гПа
погр.,
м
6 марта, сб
сб600:00−23ссв12900 0.0 103620
03:00−24св119626 0.0 103420
06:00−25ссв1110060 0.0 103220
09:00−23сз009863 0.0 103120
12:00−16ююз2388100 0.0 1027193
15:00−6зюз367583 0.0 1024563
18:00−5зюз34818 0.0 1024155
21:00−10юз33849 0.0 102726
7 марта, вс
вс700:00−13юз23880 0.0 102721
03:00−12юз338950 0.0 102738
06:00−15юз23910 0.0 102620
09:00−15юз22910 0.0 102720
12:00−9зюз228411 0.0 1023196
15:00−4юз238212 0.0 1020214
18:00−4ююз01840 0.0 101934
21:00−9юз00830 0.0 102121
8 марта, пн
пн800:00−10юз22840 0.0 102121
03:00−11юз228415 0.0 102021
06:00−10юз2387100 0.0 101923
09:00−8юз2387100 0.0 102085
12:00−3юз4781100 0.0 1018446
15:00+1з5128178 0.0 10171583
18:00−1з5147321 0.1 1018908
21:00−6зсз4107712 0.1 1023249
9 марта, вт
вт900:00−11юз228334 0.0 102629
03:00−13ююз228917 0.0 102921
06:00−16зюз119225 0.0 103020
09:00−15ссз009216 0.0 103020
12:00−9ссв228916 0.0 1026183
15:00−5ссв349048 0.0 1020243
18:00−4с229441 0.0 101861
21:00−8сз009156 0.0 102021
10 марта, ср
ср1000:00−8юз119599 0.0 102121
03:00−8юз2293100 0.0 102121
06:00−10юз229086 0.0 102421
09:00−10юз229143 0.0 102622
12:00−2зюз47770 0.0 1024569
15:000зсз610660 0.0 10241784
18:00−2зсз367461 0.0 1025227
21:00−9зюз127731 0.0 102821